DW6267 Weather Reports


Display with metric or nautical units.
time (UTC)temp
F
wind
direction
speed
MPH
gust
MPH
rain 1hr
in
rain 24hr
in
rain mn
in
humidity
%
barometer
mb
20260503000339 69 73 0.0 0.0 0.00 0.00 0.00 39 1013.1
20260502230348 73 123 1.0 0.0 0.00 0.00 0.00 29 1013.4
20260502220330 72 70 0.0 0.0 0.00 0.00 0.00 31 1013.9
20260502210340 73 163 1.0 0.0 0.00 0.00 0.00 29 1013.9
20260502200359 72 99 0.0 0.0 0.00 0.00 0.00 28 1014.5
20260502190337 73 269 0.0 0.0 0.00 0.00 0.00 28 1014.8
20260502180335 70 204 0.0 0.0 0.00 0.00 0.00 42 1014.9
20260502170406 66 204 0.0 0.0 0.00 0.00 0.00 51 1015.3
20260502160331 57 204 0.0 0.0 0.00 0.00 0.00 74 1015.9
20260502150340 46 204 0.0 0.0 0.00 0.00 0.00 89 1015.6
20260502130345 39 204 0.0 0.0 0.00 0.00 0.00 98 1015.9
20260502120411 39 204 0.0 0.0 0.00 0.00 0.00 98 1015.4
20260502110343 40 204 0.0 0.0 0.00 0.00 0.00 95 1015.7
20260502100334 41 204 0.0 0.0 0.00 0.00 0.00 93 1015.3
20260502090343 40 204 0.0 0.0 0.00 0.00 0.00 91 1014.7
20260502070401 41 204 0.0 0.0 0.00 0.00 0.00 90 1014.7
20260502060346 43 204 0.0 0.0 0.00 0.00 0.00 87 1014.7
20260502050341 45 204 0.0 0.0 0.00 0.00 0.00 84 1014.9
20260502040332 47 204 0.0 0.0 0.00 0.00 0.00 82 1014.2
20260502030355 50 204 0.0 0.0 0.00 0.00 0.00 77 1013.2
20260502020334 54 204 0.0 0.0 0.00 0.00 0.00 67 1012.4
20260502010350 59 204 0.0 0.0 0.00 0.00 0.00 55 1012.6